Location: Newark
(12.5331°N, 56.4669°W)
Time: 05:55:33
(UTC+00:00)

N. Korean satellite - Visible Passes

Search period start: 22 January 2020 00:00
Search period end: 01 February 2020 00:00
Orbit: 454 x 507 km, 97.2° (Epoch: 21 January)

Date Brightness Start Highest point End Pass type
(mag) Time Alt. Az. Time Alt. Az. Time Alt. Az.
22 Jan 9.1 08:45:48 10° NE 08:48:45 24° E 08:51:45 10° SSE visible
24 Jan 6.6 09:27:29 10° N 09:31:03 61° WNW 09:34:40 10° SSW visible
25 Jan 7.7 09:02:08 10° NNE 09:05:37 46° E 09:09:09 10° S visible
26 Jan 9.6 08:37:36 10° NE 08:40:10 18° E 08:42:44 10° SE visible
27 Jan 7.4 09:44:38 10° NNW 09:47:53 31° WNW 09:51:10 10° SW visible
28 Jan 6.5 09:18:49 10° N 09:22:28 87° W 09:26:09 10° SSW visible
29 Jan 8.5 08:53:41 10° NE 08:57:01 33° E 09:00:22 10° SSE visible
30 Jan 10.0 08:29:38 10° ENE 08:31:33 14° E 08:33:27 10° SE visible
31 Jan 6.9 09:35:48 10° N 09:39:17 43° WNW 09:42:48 10° SSW visible
